CW6259 Weather Reports


Display with metric or nautical units.
time (UTC)temp
F
wind
direction
speed
MPH
gust
MPH
rain 1hr
in
rain 24hr
in
rain mn
in
humidity
%
barometer
mb
20260503234016 83 0.0 1.0 0.00 0.00 0.00 40 1010.4
20260503233536 82 0.0 3.0 0.00 0.00 0.00 39 1010.5
20260503233016 82 0.0 1.0 0.00 0.00 0.00 42 1010.6
20260503232516 82 0.0 3.0 0.00 0.00 0.00 42 1010.7
20260503232016 82 0.0 4.0 0.00 0.00 0.00 40 1010.8
20260503231516 82 0.0 7.0 0.00 0.00 0.00 38 1010.9
20260503231016 82 0.0 1.0 0.00 0.00 0.00 41 1010.9
20260503230516 82 0.0 1.0 0.00 0.00 0.00 42 1010.9
20260503230017 82 0.0 1.0 0.00 0.00 0.00 40 1011.0
20260503225536 82 0.0 1.0 0.00 0.00 0.00 41 1011.1
20260503225016 82 0.0 5.0 0.00 0.00 0.00 41 1011.1
20260503224516 82 0.0 1.0 0.00 0.00 0.00 41 1011.3
20260503224016 82 0.0 1.0 0.00 0.00 0.00 42 1011.4
20260503223517 81 0.0 2.0 0.00 0.00 0.00 43 1011.4
20260503223016 81 0.0 1.0 0.00 0.00 0.00 44 1011.5
20260503222516 81 0.0 1.0 0.00 0.00 0.00 43 1011.5
20260503222016 81 0.0 6.0 0.00 0.00 0.00 42 1011.6
20260503221516 81 0.0 5.0 0.00 0.00 0.00 44 1011.7
20260503221016 81 0.0 6.0 0.00 0.00 0.00 44 1011.8
20260503220516 82 270 1.0 7.0 0.00 0.00 0.00 43 1011.8
20260503220016 82 270 1.0 7.0 0.00 0.00 0.00 40 1011.8
20260503215516 82 0.0 8.0 0.00 0.00 0.00 41 1011.9
20260503215016 83 0.0 7.0 0.00 0.00 0.00 41 1011.9
20260503214516 83 0.0 1.0 0.00 0.00 0.00 41 1012.0
20260503214016 83 0.0 1.0 0.00 0.00 0.00 39 1012.0
20260503213516 82 0.0 1.0 0.00 0.00 0.00 40 1012.0
20260503213016 82 0.0 6.0 0.00 0.00 0.00 43 1012.0
20260503212516 82 0.0 5.0 0.00 0.00 0.00 41 1012.1
20260503212036 82 0.0 5.0 0.00 0.00 0.00 41 1012.1
20260503211516 82 270 1.0 7.0 0.00 0.00 0.00 41 1012.1
20260503211016 82 0.0 1.0 0.00 0.00 0.00 42 1012.2
20260503210516 82 0.0 5.0 0.00 0.00 0.00 41 1012.2
20260503210016 81 0.0 1.0 0.00 0.00 0.00 43 1012.3
20260503205536 81 0.0 0.0 0.00 0.00 0.00 43 1012.3
20260503205016 80 0.0 4.0 0.00 0.00 0.00 44 1012.4
20260503204557 80 0.0 3.0 0.00 0.00 0.00 44 1012.4
20260503204016 80 0.0 3.0 0.00 0.00 0.00 43 1012.5
20260503203516 79 0.0 1.0 0.00 0.00 0.00 44 1012.5
20260503203016 79 270 1.0 4.0 0.00 0.00 0.00 43 1012.5
20260503202536 79 0.0 3.0 0.00 0.00 0.00 43 1012.5
20260503202036 79 0.0 7.0 0.00 0.00 0.00 42 1012.6
20260503201517 78 270 1.0 7.0 0.00 0.00 0.00 45 1012.7
20260503201016 78 0.0 4.0 0.00 0.00 0.00 44 1012.7
20260503200536 78 248 3.0 9.0 0.00 0.00 0.00 42 1012.8
20260503200016 78 248 1.0 7.0 0.00 0.00 0.00 46 1012.9
20260503195515 78 0.0 3.0 0.00 0.00 0.00 47 1012.9
20260503195056 78 45 1.0 6.0 0.00 0.00 0.00 45 1013.1
20260503194556 78 270 1.0 3.0 0.00 0.00 0.00 46 1013.1
20260503194016 78 0.0 3.0 0.00 0.00 0.00 45 1013.2
20260503193516 77 45 1.0 4.0 0.00 0.00 0.00 46 1013.2
20260503193015 77 270 1.0 6.0 0.00 0.00 0.00 48 1013.3
20260503192515 77 248 1.0 10.0 0.00 0.00 0.00 47 1013.3
20260503192015 77 0.0 2.0 0.00 0.00 0.00 46 1013.3
20260503191515 76 0.0 3.0 0.00 0.00 0.00 47 1013.5
20260503191035 76 68 1.0 4.0 0.00 0.00 0.00 48 1013.4
20260503190515 76 23 1.0 6.0 0.00 0.00 0.00 47 1013.5
20260503190015 76 248 1.0 6.0 0.00 0.00 0.00 48 1013.6
20260503185516 75 0.0 4.0 0.00 0.00 0.00 48 1013.6
20260503185015 75 0.0 4.0 0.00 0.00 0.00 49 1013.7
20260503184516 75 225 1.0 5.0 0.00 0.00 0.00 49 1013.7
20260503184016 75 0.0 5.0 0.00 0.00 0.00 49 1013.8
20260503183515 74 248 1.0 7.0 0.00 0.00 0.00 51 1013.8
20260503183016 74 0.0 4.0 0.00 0.00 0.00 51 1013.8
20260503182536 74 248 1.0 5.0 0.00 0.00 0.00 50 1013.8
20260503182016 73 68 1.0 6.0 0.00 0.00 0.00 50 1013.9
20260503181516 73 45 1.0 6.0 0.00 0.00 0.00 51 1013.9
20260503181015 73 225 1.0 7.0 0.00 0.00 0.00 50 1013.9
20260503180515 73 0.0 4.0 0.00 0.00 0.00 50 1013.9
20260503180018 73 0.0 4.0 0.00 0.00 0.00 52 1013.8
20260503175517 73 0.0 5.0 0.00 0.00 0.00 53 1013.9
20260503175057 73 270 1.0 6.0 0.00 0.00 0.00 52 1014.0
20260503174537 73 0.0 2.0 0.00 0.00 0.00 54 1014.0
20260503174017 73 0.0 1.0 0.00 0.00 0.00 54 1013.9
20260503173517 73 0.0 1.0 0.00 0.00 0.00 55 1013.9
20260503173017 72 0.0 4.0 0.00 0.00 0.00 54 1014.0
20260503172517 72 0.0 1.0 0.00 0.00 0.00 56 1014.1
20260503172017 71 0.0 0.0 0.00 0.00 0.00 57 1014.1
20260503171517 71 0.0 2.0 0.00 0.00 0.00 57 1014.0
20260503171017 71 0.0 1.0 0.00 0.00 0.00 57 1014.1
20260503170517 70 0.0 3.0 0.00 0.00 0.00 58 1014.1
20260503150517 59 0.0 1.0 0.00 0.00 0.00 75 1014.5
20260503150117 59 0.0 0.0 0.00 0.00 0.00 75 1014.5
20260503131016 56 0.0 0.0 0.00 0.00 0.00 76 1014.1
20260503130516 56 0.0 0.0 0.00 0.00 0.00 76 1014.2
20260503110515 56 0.0 0.0 0.00 0.01 0.00 73 1014.6
20260503081538 58 0.0 0.0 0.00 0.01 0.00 65 1014.5
20260503081037 58 0.0 0.0 0.00 0.01 0.00 64 1014.6
20260503080517 58 0.0 0.0 0.00 0.01 0.00 64 1014.6
20260503072537 58 0.0 0.0 0.00 0.02 0.00 63 1014.5
20260503072017 59 0.0 0.0 0.00 0.02 0.00 63 1014.4
20260503071517 59 0.0 0.0 0.00 0.02 0.00 63 1014.4
20260503071017 59 0.0 0.0 0.00 0.02 0.00 63 1014.4
20260503070517 59 0.0 0.0 0.00 0.02 0.00 63 1014.4
20260503055016 61 0.0 0.0 0.00 0.02 0.02 60 1014.3
20260503054516 61 0.0 0.0 0.00 0.02 0.02 60 1014.3
20260503054017 61 0.0 2.0 0.00 0.02 0.02 60 1014.3
20260503053536 61 0.0 1.0 0.00 0.02 0.02 61 1014.2
20260503053016 61 0.0 1.0 0.00 0.02 0.02 61 1014.2
20260503052516 61 0.0 2.0 0.00 0.02 0.02 60 1014.2
20260503052016 61 0.0 0.0 0.00 0.02 0.02 61 1014.3
20260503051516 61 0.0 0.0 0.00 0.02 0.02 61 1014.2
20260503051016 61 0.0 0.0 0.00 0.02 0.02 61 1014.2
20260503050516 61 0.0 0.0 0.00 0.02 0.02 60 1014.2
20260503050016 61 0.0 0.0 0.00 0.02 0.02 60 1014.3
20260503045536 62 0.0 0.0 0.00 0.02 0.02 60 1014.2
20260503045016 62 0.0 0.0 0.00 0.02 0.02 59 1014.1
20260503044516 62 0.0 0.0 0.00 0.02 0.02 59 1014.1
20260503044016 62 0.0 0.0 0.00 0.02 0.02 58 1014.1
20260503043516 63 0.0 0.0 0.00 0.02 0.02 57 1014.1
20260503043016 63 0.0 0.0 0.00 0.02 0.02 57 1014.0
20260503042536 63 0.0 1.0 0.00 0.02 0.02 57 1013.9
20260503042016 63 0.0 0.0 0.00 0.02 0.02 56 1013.9
20260503041516 63 0.0 0.0 0.00 0.02 0.02 56 1013.8
20260503041016 63 0.0 2.0 0.00 0.02 0.02 57 1013.7
20260503040516 64 0.0 0.0 0.00 0.02 0.02 56 1013.7
20260503040056 64 0.0 0.0 0.00 0.02 0.02 56 1013.6
20260503035536 64 0.0 3.0 0.00 0.02 0.02 56 1013.5
20260503035015 64 0.0 0.0 0.00 0.02 0.02 58 1013.4
20260503034516 64 0.0 2.0 0.00 0.02 0.02 58 1013.4
20260503034016 64 0.0 0.0 0.00 0.02 0.02 58 1013.4
20260503033536 64 0.0 1.0 0.00 0.02 0.02 58 1013.3
20260503033016 65 0.0 0.0 0.00 0.02 0.02 59 1013.2
20260503032516 65 0.0 0.0 0.00 0.02 0.02 59 1013.2
20260503032016 65 0.0 0.0 0.00 0.02 0.02 58 1013.2
20260503031516 66 0.0 0.0 0.00 0.02 0.02 58 1013.2
20260503031016 66 0.0 0.0 0.00 0.02 0.02 58 1013.1
20260503030516 66 0.0 1.0 0.00 0.02 0.02 58 1013.1
20260503030015 66 0.0 0.0 0.00 0.02 0.02 57 1013.1
20260503025516 67 0.0 0.0 0.00 0.02 0.02 57 1013.0
20260503025035 67 0.0 1.0 0.00 0.02 0.02 58 1013.0
20260503024516 67 0.0 0.0 0.00 0.02 0.02 57 1013.0
20260503024015 67 0.0 5.0 0.00 0.02 0.02 57 1013.0
20260503023516 68 0.0 1.0 0.00 0.02 0.02 57 1013.0
20260503023016 68 0.0 4.0 0.00 0.02 0.02 56 1013.0
20260503022516 68 0.0 3.0 0.00 0.02 0.02 56 1013.0
20260503022015 69 0.0 1.0 0.00 0.02 0.02 56 1012.9
20260503021015 69 0.0 4.0 0.00 0.02 0.02 55 1012.9
20260503020516 70 0.0 4.0 0.00 0.02 0.02 55 1012.9
20260503020015 70 248 1.0 5.0 0.00 0.02 0.02 55 1012.9
20260503015535 70 270 1.0 8.0 0.00 0.02 0.02 56 1012.9
20260503015035 70 0.0 3.0 0.00 0.02 0.02 56 1013.0
20260503014515 70 248 1.0 6.0 0.00 0.02 0.02 56 1013.0
20260503014016 70 0.0 3.0 0.00 0.02 0.02 56 1013.0
20260503013515 70 270 1.0 4.0 0.00 0.02 0.02 56 1013.0
20260503013016 70 248 1.0 6.0 0.00 0.02 0.02 56 1013.1
20260503012515 70 0.0 3.0 0.00 0.02 0.02 57 1013.1
20260503012035 70 248 1.0 4.0 0.00 0.02 0.02 57 1013.0
20260503011515 70 0.0 4.0 0.00 0.02 0.02 57 1013.1
20260503011036 70 0.0 1.0 0.00 0.02 0.02 57 1013.0
20260503010535 71 0.0 6.0 0.00 0.02 0.02 56 1013.1
20260503010015 71 0.0 1.0 0.00 0.02 0.02 57 1013.1
20260503005515 71 225 1.0 4.0 0.00 0.02 0.02 56 1013.2
20260503005057 71 0.0 2.0 0.00 0.02 0.02 56 1013.3
20260503004517 71 0.0 3.0 0.00 0.02 0.02 56 1013.4
20260503004017 71 0.0 3.0 0.00 0.02 0.02 55 1013.4
20260503003517 71 0.0 2.0 0.00 0.02 0.02 56 1013.4
20260503003016 71 0.0 4.0 0.00 0.02 0.02 55 1013.4
20260503002517 72 248 1.0 5.0 0.00 0.02 0.02 55 1013.5
20260503002017 72 248 1.0 7.0 0.00 0.02 0.02 54 1013.4
20260503001538 73 0.0 1.0 0.00 0.02 0.02 53 1013.4
20260503001017 73 0.0 1.0 0.00 0.02 0.02 52 1013.4
20260503000537 74 248 1.0 7.0 0.00 0.02 0.02 51 1013.5
20260503000017 74 0 1.0 5.0 0.00 0.02 0.02 50 1013.5
20260502235517 75 248 1.0 7.0 0.00 0.02 0.02 49 1013.5
20260502235057 75 0.0 3.0 0.00 0.02 0.02 49 1013.6
20260502234517 75 248 1.0 7.0 0.00 0.02 0.02 50 1013.7